Regional Weather Roundup
Issued by NWS Wakefield, VA

Home | Current Version | Previous Version | Graphics & Text | Print | Product List | Glossary On
Versions: 1 2 3 4 5 6 7 8 9 10 11 12 13 14 15 16 17 18 19 20 21 22 23 24 25 26 27 28 29 30 31 32 33 34 35 36 37 38 39 40 41 42 43 44 45
000
ASUS41 KAKQ 032315
RWRAKQ

REGIONAL WEATHER ROUNDUP
NATIONAL WEATHER SERVICE WAKEFIELD VA
700 PM EDT THU SEP 03 2015

Note: "fair" indicates few or no clouds below 12,000 feet with no
significant weather and/or obstructions to visibility. * = Denotes
station may not report precipitation (e.g., rain,snow,etc.),
thunder or fog.

VAZ042-051-052>054-056-040000-
NORTHERN VIRGINIA

CITY           SKY/WX    TMP DP  RH WIND       PRES   REMARKS
WASH NATIONAL  MOCLDY    83  69  62 S5        29.86R
DULLES         MOCLDY    88  65  46 NW9       29.86R
FORT BELVOIR   PTCLDY    84  68  58 CALM      29.86R
QUANTICO       MOCLDY    83  72  69 NW7       29.86R
FREDERICKSBRG* PTCLDY    89  67  48 CALM      29.85R
STAFFORD*      MOCLDY    82  72  71 NW3       29.90R
WARRENTON      PTCLDY    86  74  67 NW5       29.88R
CULPEPER*      MOCLDY    80  72  75 CALM      29.88R
MANASSAS*      CLEAR     86  70  58 W6        29.86R
LEESBURG*      PTCLDY    86  72  62 CALM      29.88R
WINCHESTER     MOCLDY    77  68  73 CALM      29.92R
FRONT ROYAL*   CLOUDY    70  66  88 SW7       29.91R
LURAY*         FAIR      81  68  65 NW7       29.93R
$$

VAZ048-049-060>072-079>083-040000-
CENTRAL AND SOUTH CENTRAL VIRGINIA

CITY           SKY/WX    TMP DP  RH WIND       PRES   REMARKS
RICHMOND       PTCLDY    87  71  58 S3        29.86R
CHESTERFIELD*  FAIR      84  64  51 NW6       29.87S
PETERSBURG*    PTCLDY    84  77  77 CALM      29.87R
HANOVER        MOCLDY    84  75  74 CALM      29.87S
TAPPAHANNOCK*  MOCLDY    85  69  57 CALM      29.86S
QUINTON*       FAIR      82  72  71 CALM      29.85S
CHARLOTTSVILLE MOCLDY    83  69  62 CALM      29.89R
GORDONSVILLE*  FAIR      82  73  73 CALM      29.88R
ORANGE*        MOCLDY    82  70  65 CALM      29.90R
LOUISA*        PTCLDY    88  68  51 CALM      29.87R
BUMPASS*       FAIR      81  73  78 CALM      29.87R
FARMVILLE*     PTCLDY    87  67  50 N5        29.87R
CREWE*         FAIR     N/A N/A N/A S3        29.87S
FORT PICKETT*  FAIR      84  71  64 SW6       29.88R
CHASE CITY*    FAIR      87  72  61 CALM      29.88S
CLARKSVILLE*   FAIR      82  73  74 CALM      29.88S
SOUTH HILL*    MOCLDY    82  77  85 CALM      29.93S
LAWRENCEVILLE* FAIR      82  75  78 CALM      29.87S
EMPORIA*       PTCLDY    81  77  89 CALM      29.87S
$$

VAZ088>098-040000-
SOUTHEAST VIRGINIA

CITY           SKY/WX    TMP DP  RH WIND       PRES   REMARKS
NORFOLK        CLEAR     86  65  49 E3        29.85F
VIRGINIA BEACH PTCLDY    85  70  60 E6        29.84F
NORFOLK NAVAL  PTCLDY    84  67  56 E3        29.86F
WEST POINT*    CLEAR     88  69  54 SE3       29.86S
SALUDA*        FAIR      83  70  66 CALM      29.85R
NEWPORT NEWS   CLEAR     86  68  54 SE6       29.85F
LANGLEY AFB    CLEAR     85  67  53 SE5       29.84F
FORT EUSTIS    CLEAR     85  70  61 S3        29.83F
WILLIAMSBURG*  CLEAR     88  73  62 SE3       29.86S HX  96
HR EXEC AP*      N/A     81  72  74 CALM      29.87S
FRANKLIN*      PTCLDY    84  73  67 CALM      29.86S
WAKEFIELD      CLEAR     83  72  69 CALM      29.85F HAZE
$$

VAZ020-022-025-037-045-040000-
WEST CENTRAL AND SOUTHWEST VIRGINIA

CITY           SKY/WX    TMP DP  RH WIND       PRES   REMARKS
STAUNTON*      MOCLDY    83  65  54 CALM      29.96R
WAYNESBORO*    FAIR      84  65  53 CALM      29.95R
HOT SPRINGS VA DRIZZLE   70  62  76 NW6       30.09S
LYNCHBURG      PTCLDY    85  66  53 N3        29.92R
DANVILLE       MOCLDY    85  67  54 CALM      29.89S
SOUTH BOSTON*  FAIR      84  69  60 CALM      29.89R
MARTINSVILLE   MOCLDY    83  66  56 NW7       29.95R
ROANOKE        PTCLDY    84  63  49 N7        29.95S
BLACKSBURG     PTCLDY    73  71  92 CALM      30.03S
DUBLIN*        CLOUDY    81  67  62 NW5       30.02R
MARION*        CLEAR     78  66  66 CALM      30.07R
HILLSVILLE*    PTCLDY    79  64  59 N6        30.03S
RICHLANDS*     FAIR      78  28  15 NW7       30.06R
WISE*          SUNNY     79  59  50 N5        30.07S
ABINGDON*      PTCLDY    83  62  47 CALM      30.02R
$$

MDZ021>025-VAZ099-100-040000-
SOUTHERN MARYLAND AND THE DELMARVA PENINSULA

CITY           SKY/WX    TMP DP  RH WIND       PRES   REMARKS
PATUXENT RIVER MOCLDY    84  69  60 CALM      29.85R
BAY BRIDGE APT   N/A     84  70  61 SW5       29.85R
LEONARDTOWN    NOT AVBL
DOVER          CLEAR     87  72  61 NW3       29.82R
GEORGETOWN     PTCLDY    83  69  62 S6        29.85R
EASTON         CLEAR     86  72  62 CALM      29.88R
CAMBRIDGE      PTCLDY    82  70  65 W5        29.84S
SALISBURY      PTCLDY    83  73  72 CALM      29.84S
OCEAN CITY     CLEAR     82  69  64 CALM      29.84F
WALLOPS ISLAND PTCLDY    81  74  79 S6        29.85S
ACCOMACK*      CLEAR     79  64  61 W3        29.83S
$$

NCZ012>017-030>032-040000-
NORTH CENTRAL AND EASTERN NORTH CAROLINA

CITY           SKY/WX    TMP DP  RH WIND       PRES   REMARKS
ROANOKE RAPIDS FAIR      81  73  78 S3        29.87S
RALEIGH        MOCLDY    80  72  76 CALM      29.89R
ELIZABETH CITY PTCLDY    79  71  76 E5        29.86S
AHOSKIE*       MOCLDY    79  74  86 CALM      29.86F
EDENTON*       PTCLDY    83  71  68 SW3       29.86S
CURRITUCK*     PTCLDY    83  69  64 CALM      29.87S
KILL DEVIL HLS PTCLDY    82  69  65 CALM      29.85F
MANTEO         PTCLDY    81  73  77 S7        29.87S
CAPE HATTERAS  PTCLDY    81  70  69 CALM      29.88S
TARBORO*       FAIR      83  74  73 CALM      29.88S
GOLDSBORO      CLEAR     86  72  62 CALM      29.87R
WASHINGTON     PTCLDY    82  73  72 CALM      29.87S
GREENVILLE     PTCLDY    86  73  66 CALM      29.89S
NEW BERN       PTCLDY    85  69  58 NE3       29.88S
WILMINGTON     CLOUDY    78  69  73 SW6       29.88S
$$

VAZ048-040000-
ELSEWHERE

CITY           SKY/WX    TMP DP  RH WIND       PRES   REMARKS
HARRISBURG PA  MOCLDY    87  67  51 CALM      29.84F
BALTIMORE      MOCLDY    86  71  60 S5        29.85R
ANNAPOLIS      PTCLDY    85  70  60 CALM      29.84R
ANDREWS AFB    PTCLDY    77  70  79 S3        29.86S
PHILADELPHIA   PTCLDY    91  62  37 NE6       29.83R
HENDERSON NC   MOCLDY    81  69  65 CALM      29.89S
GREENSBORO     MOCLDY    86  62  44 CALM      29.91S
ROCKY MOUNT    PTCLDY    83  71  67 CALM      29.87S
$$

VAZ100-040000-
MARINE

STATION/POSITION TIME  TEMP    WIND        PRES    WAVE   SWELL
                       AIR SEA DIR/SP/G            HT/PER HT/PER
                 (UTC) (F)     (DEG/KT/KT) (MB)    (FT/S) (FT/S)
BRANDYWINE LGT   2200   85 77  260/  6/  7 1010.2F
CAPE MAY NJ      2200   82 81  190/  5/  7 1009.8R
LEWES DE         2200   88 77   90/  1/  2 1010.1S
15NM E FENWICK I 2250   81 81  190/ 10/ 10 1010.5S   1/13   2/13
OCEAN-CITY-INLET 2200   81 78  220/  8/ 10 1009.9R
THOMAS POINT MD  2300   83 81  230/  6/  6 1011.2R
GOOSES REEF MD   2300   83 82  220/  2/  4 1011.8R
COVE POINT MD    2200   85     290/  1/  3 1011.3F
SOLOMONS ISLAND  2200      82                N/A
BISHOPS HEAD MD  2200   83 85  240/  5/  6 1009.7S
PINEY POINT MD   2205          170/  2/  2   N/A
POTOMAC MD       2300   85 83  170/  4/  6 1009.5R   0
CAMBRIDGE MD     2200   87 83  260/  4/  5 1009.6F
LEWISETTA VA     2200   85 81  140/  6/  6 1010.2F
RAPPAHANNOCK LGT 2200          190/  5/  5 1011.3F
STINGRAY PT      2300   83 82  190/  6/  8 1011.1S   0
YORK RVR RNG VA  2200   83     170/  6/  6 1010.4F
JAMESTOWN VA     2300   85 84   CALM  /  2   N/A
DOMINION TERM VA 2200   88      CALM  /  4 1010.9F
KIPTOPEKE VA     2200      80  210/  4/  4   N/A
CHES BAY BRIDGE  2200   84 79   CALM  /  1 1010.6F
CAPE HENRY VA    2200   83     110/  5/  6   N/A
CHESAPEAKE LGHT  2200   81     200/  3/  4 1011.9F
WILLOUBY STN VA  2200   84      CALM  /  1 1012.0F
CAPE HENRY BUOY  2228      82                N/A     1/13
1ST LANDING BUOY 2300      80              1010.6F   1
CAPE CHARLES BUO 2226      81                N/A     1/13   2/13
OFFSHORE WE BUOY 2211      81                N/A     1/13   2/13
64NM E OF VA BCH 2250   79 80  280/  6/  6 1010.7F   1/13   2/13
DUCK PIER NC     2200   84 81  130/  5/  5 1010.5F
44100 DUCK FRF   2224      82                N/A     1/13
44056 DUCK FRF   2211      81                N/A     1/13
OREGON INLET NC  2200   81 82  180/  5/  8 1011.5S
HATTERAS NC      2200   82 83  160/  4/  5 1011.4F
DIAMOND SHLS NC  2250   81 86  260/  2/  6 1011.9R   1/ 8   2/ 8
CAPE LOOKOUT NC  2300   80     220/  4/  5 1011.8R
$$



USA.gov is the U.S. government's official web portal to all federal, state and local government web resources and services.